Location: Hungerford
(51.4167°N, 1.5167°W)
Time: 22:49:00
(UTC+00:00)

USA 234 - Pass Details

Date: 18 September 2020
Orbit: 1102 x 1106 km, 123.0° (Epoch: 16 October)

Event Time Altitude Azimuth Distance (km) Brightness Sun altitude
Rises 23:43:44 0° 77° (ENE) 3,922 6.2 -37.1°
Reaches altitude 10° 23:46:15 10° 73° (ENE) 2,965 5.6 -37.1°
Enters shadow 23:50:38 41° 48° (NE) 1,547 4.1 -37.2°
Exits shadow 23:54:28 42° 309° (NW) 1,524 4.1 -37.2°
Drops below altitude 10° 23:58:57 10° 283° (WNW) 2,966 5.6 -37.2°
Sets 00:01:28 0° 279° (W) 3,925 6.3 -37.2°
